Terminal Aerodrome Forecast
Issued by NWS Dodge City, KS

Home | Current Version | Previous Version | Text Only | Print | Product List | Glossary On
Versions: 1 2 3 4 5 6 7 8 9 10 11 12 13 14 15 16 17 18 19 20 21 22 23 24 25 26 27 28 29 30 31 32 33 34 35 36 37 38 39 40 41 42
000
FTUS43 KDDC 192350
TAFDDC
TAF
KDDC 192350Z 2000/2024 VRB06KT P6SM SKC
     FM200900 36007KT P6SM SKC
     FM201500 04010KT P6SM SKC=

USA.gov is the U.S. government's official web portal to all federal, state and local government web resources and services.